Location: Ca�n Batista
(41.4099°N, 1.7752°E)
Time: 14:21:46
(UTC+00:00)

GP-B - Pass Details

Date: 03 March 2021
Orbit: 631 x 635 km, 89.8° (Epoch: 22 April)

Event Time Altitude Azimuth Distance (km) Brightness Sun altitude
Rises 19:20:03 0° 182° (S) 2,913 6.5 -18.4°
Reaches altitude 10° 19:22:16 10° 184° (S) 2,010 5.6 -18.8°
Maximum altitude 19:26:41 71° 269° (W) 674 3.3 -19.6°
Drops below altitude 10° 19:31:08 10° 354° (N) 2,028 5.9 -20.4°
Sets 19:33:23 0° 356° (N) 2,942 6.7 -20.9°
